Location: New Frontier Mobile Home Park
(32.8448°N, 116.9675°W)
Time: 23:00:44
(UTC+00:00)

Nadezhda 3 Rocket - Pass Details

Date: 14 July 2020
Orbit: 957 x 999 km, 82.9° (Epoch: 05 August)

Event Time Altitude Azimuth Distance (km) Brightness Sun altitude
Rises 06:03:25 0° 348° (NNW) 3,712 8.1 -29.5°
Reaches altitude 10° 06:06:00 10° 344° (NNW) 2,755 7.2 -29.8°
Maximum altitude 06:12:08 55° 269° (W) 1,165 4.4 -30.4°
Enters shadow 06:12:43 53° 248° (WSW) 1,187 4.3 -30.4°
